Location: Asheville, NC
(35.6000°N, 82.5500°W)
Time: 03:29:44
(UTC-04:00)

BEESAT 3 - Pass Details

Date: 09 March 2018
Orbit: 499 x 517 km, 64.9° (Epoch: 17 June)

Event Time Altitude Azimuth Distance (km) Brightness Sun altitude
Exits shadow 04:59:18 - 346° (NNW) 2,504 ? -23.1°
Reaches altitude 10° 05:01:33 10° 2° (N) 1,741 ? -22.7°
Maximum altitude 05:04:31 21° 52° (NE) 1,209 ? -22.1°
Drops below altitude 10° 05:07:28 10° 102° (ESE) 1,725 ? -21.5°
Sets 05:10:02 0° 119° (ESE) 2,602 ? -21.0°
